Back to catalog

STARLINK-35436

AliveCommunicationsVLEO
NORAD 65932·PAYLOAD·🇺🇸 United States

Launched Oct 8, 2025 from Vandenberg Space Force Base

Loading…

Next Passes (next 24 hours)

TLE

FreshSource: CelesTrak SupGP

Epoch: Sep 14, 2026, 20:46 UTC

1 65932C 25225Y   26257.86576389  .00019281  00000+0  56982-3 0  2575
2 65932  53.1594   6.0768 0001139  82.6103 308.3256 15.34372857    18

Track STARLINK-35436 in real time with AllMySat

Download on the App Store